GW0523 Weather Reports


time (UTC)temp
F
wind
direction
speed
knots
gust
knots
rain 1hr
in
rain 24hr
in
rain mn
in
humidity
%
barometer
mb
20260503022057 49 0.0 0.0 0.00 0.22 0.00 95 1006.5
20260503021053 49 0.0 0.0 0.00 0.22 0.00 95 1006.6
20260503020049 49 0.0 0.0 0.00 0.22 0.00 95 1006.7
20260503015046 50 0.0 0.0 0.00 0.22 0.00 96 1006.8
20260503014102 50 0.0 0.0 0.00 0.22 0.00 95 1007.0
20260503013038 50 0.0 0.0 0.00 0.22 0.00 96 1006.9
20260503012034 50 0.0 0.0 0.00 0.22 0.00 96 1007.2
20260503011028 50 0.0 0.0 0.00 0.22 0.00 96 1007.2
20260503010023 50 0.0 0.0 0.00 0.22 0.00 96 1007.3
20260503005039 50 0.0 0.0 0.00 0.22 0.00 96 1007.5
20260503004136 50 0.0 0.0 0.00 0.22 0.00 96 1007.6
20260503003132 50 0 0.9 2.6 0.00 0.22 0.00 96 1007.5
20260503002107 51 0.0 0.0 0.00 0.22 0.00 95 1007.5
20260503001102 51 0.0 0.0 0.00 0.22 0.00 95 1007.7
20260503000157 50 0.0 0.0 0.00 0.22 0.00 95 1007.9
20260502235152 50 0.0 0.0 0.00 0.22 0.00 95 1007.9
20260502234147 51 0.0 0.0 0.00 0.22 0.00 95 1008.0
20260502233142 51 0.0 0.0 0.00 0.22 0.00 95 1008.0
20260502232138 51 0.0 0.0 0.01 0.22 0.00 95 1008.0
20260502231134 51 0.0 0.0 0.01 0.22 0.00 95 1008.0
20260502230130 51 0.0 0.0 0.01 0.22 0.00 95 1007.9
20260502225125 51 0.0 0.0 0.01 0.22 0.22 95 1007.9
20260502224120 51 0.0 0.0 0.01 0.22 0.22 95 1008.0
20260502223116 51 0 0.9 3.5 0.01 0.22 0.22 94 1008.0
20260502222131 51 0.0 0.0 0.01 0.21 0.21 94 1008.0
20260502221108 51 0.0 0.0 0.01 0.21 0.21 94 1008.1
20260502220104 51 0.0 0.0 0.01 0.21 0.21 93 1008.1
20260502215100 51 0 1.7 2.6 0.02 0.21 0.21 94 1008.3
20260502214056 51 0 2.6 3.5 0.04 0.21 0.21 94 1008.3
20260502213152 51 2.6 3.5 0.05 0.21 0.21 95 1008.3
20260502212148 51 0 2.6 3.5 0.04 0.20 0.20 95 1008.4
20260502211143 51 0 2.6 3.5 0.05 0.20 0.20 95 1008.5
20260502210138 52 0 2.6 3.5 0.06 0.20 0.20 95 1008.5
20260502205134 52 0 2.6 3.5 0.05 0.19 0.19 95 1008.5
20260502204149 52 0 2.6 3.5 0.05 0.18 0.18 94 1008.7
20260502203125 52 0.0 0.0 0.05 0.17 0.17 94 1008.6
20260502202121 52 0.0 0.0 0.06 0.17 0.17 93 1008.7
20260502201116 52 0.0 0.0 0.05 0.15 0.15 93 1008.8
20260502200111 52 0.0 0.0 0.05 0.14 0.14 92 1008.8
20260502195106 52 0.0 0.0 0.06 0.14 0.14 91 1008.9
20260502194101 52 0.0 0.9 0.07 0.13 0.13 91 1008.9
20260502193056 52 315 0.0 1.7 0.07 0.12 0.12 90 1009.0
20260502192052 53 0.0 0.0 0.07 0.11 0.11 89 1009.1
20260502191208 53 0.0 0.0 0.08 0.11 0.11 87 1009.1
20260502190144 53 0.0 0.0 0.07 0.09 0.09 85 1009.3
20260502185139 53 0.0 0.0 0.07 0.08 0.08 84 1009.4
20260502184134 53 156 0.9 1.7 0.05 0.06 0.06 83 1009.4
20260502183149 54 135 1.7 3.5 0.04 0.05 0.05 82 1009.4
20260502182125 54 146 2.6 3.5 0.04 0.05 0.04 81 1009.5
20260502181121 54 148 2.6 3.5 0.02 0.04 0.02 80 1009.6
20260502180138 55 138 2.6 3.5 0.02 0.04 0.02 76 1009.5
20260502164143 59 90 2.6 4.3 0.00 0.01 0.00 64 1009.7
20260502163139 59 90 2.6 3.5 0.00 0.01 0.00 63 1009.7
20260502162135 60 90 3.5 5.2 0.00 0.01 0.00 61 1009.7
20260502161130 60 90 3.5 3.5 0.00 0.01 0.00 61 1009.8
20260502160125 0 0.0 0.0 0.00 0.01 0.00 1009.9
20260502152145 62 2.6 2.6 0.00 0.01 0.00 58 1010.3
20260502151102 0 0.0 0.0 0.00 0.01 0.00 1010.4
20260502130105 66 233 1.7 3.5 0.00 0.01 0.00 51 1011.9
20260502123053 63 225 2.6 4.3 0.00 0.01 0.00 57 1012.1
20260502122049 62 153 1.7 3.5 0.00 0.01 0.00 55 1012.3
20260502121044 64 180 0.9 2.6 0.00 0.01 0.00 52 1012.4
20260502115154 64 7 3.5 3.5 0.00 0.01 0.00 54 1012.7
20260502114149 62 99 1.7 3.5 0.00 0.01 0.00 55 1012.8
20260502113124 64 78 0.9 1.7 0.00 0.01 0.00 54 1013.0
20260502112120 61 217 4.3 5.2 0.00 0.01 0.00 59 1013.1
20260502111116 61 216 3.5 5.2 0.00 0.01 0.00 60 1013.2
20260502110112 61 90 2.6 4.3 0.00 0.01 0.00 59 1013.4
20260502105107 62 90 2.6 3.5 0.00 0.01 0.00 60 1013.3
20260502104103 61 168 1.7 3.5 0.00 0.01 0.00 63 1013.4
20260502103058 59 225 0.9 1.7 0.00 0.02 0.00 65 1013.3
20260502102053 58 297 0.9 1.7 0.00 0.05 0.00 65 1013.4
20260502101049 57 225 2.6 3.5 0.00 0.06 0.00 66 1013.4
20260502091124 56 243 1.7 3.5 0.00 0.09 0.00 77 1014.1
20260502090120 53 250 1.7 6.1 0.00 0.09 0.00 79 1014.1
20260502071030 51 225 0.0 2.6 0.00 0.09 0.00 88 1014.2
20260502070126 50 225 0.9 2.6 0.00 0.09 0.00 88 1014.1
20260502065121 49 0.0 0.0 0.00 0.09 0.00 88 1014.1
20260502064116 49 219 0.9 3.5 0.00 0.09 0.00 89 1014.1
20260502063111 49 206 1.7 1.7 0.00 0.09 0.00 89 1014.1
20260502062127 49 225 3.5 6.1 0.00 0.09 0.00 90 1014.2
20260502061123 49 0.0 0.0 0.00 0.09 0.00 90 1014.1
20260502060059 49 0.0 0.0 0.00 0.09 0.00 90 1014.0
20260502055055 49 248 3.5 3.5 0.00 0.09 0.00 90 1014.0
20260502054051 48 0.0 0.0 0.00 0.09 0.00 90 1013.9
20260502053047 48 0.0 0.0 0.00 0.09 0.00 90 1013.9
20260502052123 48 0.0 0.0 0.00 0.09 0.00 90 1014.0
20260502051058 48 0.0 0.0 0.00 0.09 0.00 90 1014.0
20260502050032 48 0.0 0.0 0.00 0.09 0.00 91 1013.9
20260502045048 48 0.0 0.9 0.00 0.09 0.00 92 1014.0
20260502044025 49 0.0 0.0 0.00 0.09 0.00 94 1014.0
20260502043121 48 270 0.9 2.6 0.00 0.09 0.00 96 1014.0
20260502042116 48 0.0 0.0 0.00 0.09 0.00 97 1014.1
20260502041111 48 236 0.9 1.7 0.00 0.09 0.00 97 1014.1
20260502040106 47 246 1.7 3.5 0.00 0.09 0.00 97 1014.2
20260502035101 47 0.0 0.0 0.00 0.09 0.00 97 1014.3
20260502034056 47 0.0 0.0 0.00 0.09 0.00 97 1014.4
20260502033051 47 0.0 0.0 0.00 0.09 0.00 97 1014.5
20260502032107 47 248 1.7 3.5 0.00 0.09 0.00 97 1014.5
20260502031043 47 225 4.3 5.2 0.00 0.09 0.00 97 1014.6
20260502030039 46 241 5.2 7.0 0.00 0.09 0.00 97 1014.7
20260502025034 46 244 6.1 7.0 0.00 0.09 0.00 97 1014.8
20260502024029 45 229 5.2 7.0 0.00 0.09 0.00 98 1014.8
20260502023024 45 225 1.7 2.6 0.00 0.09 0.00 99 1015.0